Date,TemperatureHighF,TemperatureAvgF,TemperatureLowF,DewpointHighF,DewpointAvgF,DewpointLowF,HumidityHigh,HumidityAvg,HumidityLow,PressureMaxIn,PressureMinIn,WindSpeedMaxMPH,WindSpeedAvgMPH,GustSpeedMaxMPH,PrecipitationSumIn
2013-8-1,88,77,65,69,60,53,87,58,30,30.01,29.96,23,5,24,0.00
2013-8-2,90,80,72,72,61,42,84,56,20,30.01,29.96,21,6,22,0.00
2013-8-3,95,81,70,72,59,41,89,53,17,30.10,29.96,13,3,13,0.00
2013-8-4,92,80,68,73,61,43,89,59,20,30.13,30.01,15,4,17,0.00
2013-8-5,91,80,68,71,55,39,89,48,18,30.04,29.90,24,5,24,0.00
2013-8-6,94,82,70,74,62,46,89,58,20,30.01,29.78,13,3,13,0.00
2013-8-7,96,80,73,74,60,42,93,59,17,29.87,29.72,10,2,11,0.00
2013-8-8,92,74,62,66,44,25,93,42,12,30.13,29.84,15,5,17,0.12
2013-8-9,87,75,62,59,46,34,65,38,16,30.16,30.07,15,4,15,0.00
2013-8-10,96,79,70,57,42,31,63,29,11,30.13,30.04,17,6,20,0.00
2013-8-11,89,79,70,57,46,38,48,32,18,30.07,29.96,13,4,16,0.00
2013-8-12,94,80,67,60,44,31,52,31,11,30.01,29.90,14,3,14,0.00
2013-8-13,102,82,70,61,45,31,62,34,10,30.01,29.93,22,4,23,0.00
2013-8-14,92,81,71,64,44,35,78,31,17,30.07,29.96,13,4,16,0.00
2013-8-15,94,78,64,64,41,30,76,31,11,30.07,30.01,13,3,13,0.00
2013-8-16,89,76,65,72,60,49,89,62,30,30.07,29.99,15,4,15,0.00
2013-8-17,97,78,68,70,56,33,89,56,11,30.07,29.99,17,3,17,0.04
2013-8-18,87,77,65,73,60,45,88,61,25,30.07,29.99,18,4,19,0.00
2013-8-19,92,78,69,72,57,33,91,55,20,30.13,29.99,18,3,18,0.00
2013-8-20,96,81,70,42,33,25,32,19,9,30.16,30.01,22,6,23,0.00
2013-8-21,96,76,63,60,40,28,83,32,11,30.13,30.01,13,3,13,0.00
2013-8-22,87,75,65,69,60,51,92,64,30,30.04,29.90,25,5,25,0.00
2013-8-23,92,79,69,70,59,48,86,56,24,30.01,29.90,13,3,13,0.00
2013-8-24,94,76,68,71,54,39,89,51,19,29.96,29.90,22,4,22,0.00
2013-8-25,82,72,64,60,45,35,82,39,20,29.96,29.84,19,5,19,0.00
2013-8-26,86,71,62,66,51,37,93,55,21,29.90,29.84,9,2,9,0.00
2013-8-27,87,71,64,66,49,32,92,51,18,29.99,29.87,16,4,16,0.96
2013-8-28,86,72,64,64,54,37,94,61,20,30.04,29.96,12,3,12,0.08
2013-8-29,91,76,64,61,39,24,81,31,12,30.07,30.01,13,2,13,0.00
2013-8-30,94,80,71,35,29,23,26,16,10,30.13,30.01,20,6,22,0.00
2013-8-31,94,80,71,33,27,22,19,15,11,30.13,30.04,19,6,20,0.00